1998-067XA

Last updated on Wed Oct 09 2024 00:02:04 GMT+0000 (Coordinated Universal Time)

1 61502U 98067XA 24282.71197212 .00224055 00000+0 37736-2 0 9997 2 61502 51.6326 113.0858 0007019 66.9618 31.7840 15.50350144 76
UTC large
Height (km)
Speed (km/s)
/
Latitude / Longitude
Inclination (degrees)
Orbital Period (minutes)
Azimuth
Elevation
Range (km)
Doppler Factor

Next 0 passes for location: London (51.5072 / 0.1276)

Sorry there are no passes over London.